Location: Passau
(48.5830°N, 13.4830°E)
Time: 21:46:00
(UTC+02:00)

S-56A Canister/Altair - Pass Details

Date: 23 May 2024
Orbit: 637 x 2489 km, 38.9° (Epoch: 16 June)

Event Time Altitude Azimuth Distance (km) Brightness Sun altitude
Rises 06:34:02 0° 220° (SW) 5,998 11.6 10.8°
Reaches altitude 10° 06:38:46 10° 212° (SSW) 4,814 11.2 11.5°
Maximum altitude 06:49:34 32° 157° (SSE) 2,805 10.6 13.2°
Drops below altitude 10° 06:57:38 10° 99° (E) 3,572 12.4 14.5°
Sets 07:00:34 0° 89° (E) 4,297 13.0 15.0°
